Location: Alladorf
(49.9620°N, 11.3790°E)
Time: 21:16:25
(UTC+00:00)

Genesis I - Pass Details

Date: 29 November 2020
Orbit: 493 x 528 km, 64.5° (Epoch: 24 January)

Event Time Altitude Azimuth Distance (km) Brightness Sun altitude
Exits shadow 05:25:20 - 232° (SW) 2,060 5.9 -12.9°
Reaches altitude 10° 05:26:14 10° 234° (SW) 1,702 5.5 -12.7°
Maximum altitude 05:29:59 58° 314° (NW) 592 3.2 -12.2°
Drops below altitude 10° 05:33:49 10° 35° (NE) 1,732 6.1 -11.6°
Sets 05:36:02 0° 39° (NE) 2,628 7.1 -11.2°
